Weather History for Florence, Italy

Change the Weather History Date:

Wednesday, September 4, 2013

  Actual Average Record
Temperature  
Mean Temperature 78 °F -  
Max Temperature 95 °F 79 °F 95 °F (2004)
Min Temperature 62 °F 57 °F 59 °F (2007)
Cooling Degree Days 14    
Growing Degree Days 28 (Base 50)    
Moisture  
Dew Point 55 °F    
Average Humidity 49    
Maximum Humidity 88    
Minimum Humidity 19    
Precipitation  
Precipitation 0.00 in 0.10 in - ()
Sea Level Pressure  
Sea Level Pressure 30.15 in    
Wind  
Wind Speed 3 mph ()    
Max Wind Speed 10 mph    
Max Gust Speed -    
Averages and records for this station are not official NWS values.
T = Trace of Precipitation, MM = Missing Value Source: Averaged Metar Reports

Daily Weather History Graph

Daily Weather History Graph

Search for Another Location

Airport:

Trip Planner

Search our weather history database for the weather conditions in past years. The results will help you decide how hot, cold, wet, or windy it might be!

Date:

Astronomy

Sep. 04, 2013 Rise Set
Actual Time 6:42 AM CEST 7:45 PM CEST
Civil Twilight 6:12 AM CEST 8:14 PM CEST
Nautical Twilight 5:37 AM CEST 8:49 PM CEST
Astronomical Twilight 5:00 AM CEST 9:26 PM CEST
Moon 5:37 AM CEST (9/4) 6:55 PM CEST (9/4)
Length of Visible Light 14h 02m
Length of Day
13h 03m
Waning Crescent, 1% of the Moon is Illuminated
Sep 4
Waning Crescent
Sep 5
New
Sep 12
First Quarter
Sep 19
Full
Sep 27
Last Quarter

Hourly Weather History & Observations

Time (CEST) Temp. Heat Index Dew Point Humidity Pressure Visibility Wind Dir Wind Speed Gust Speed Precip Events Conditions
12:20 AM 69.8 °F - 57.2 °F 64% 30.21 in - East 5.8 mph - N/A   Clear
12:50 AM 69.8 °F - 57.2 °F 64% 30.21 in - Variable 2.3 mph - N/A   Clear
1:20 AM 69.8 °F - 57.2 °F 64% 30.21 in - Variable 1.2 mph - N/A   Clear
1:50 AM 69.8 °F - 57.2 °F 64% 30.21 in - Calm Calm - N/A   Clear
2:20 AM 68.0 °F - 57.2 °F 68% 30.21 in - Variable 1.2 mph - N/A   Clear
2:50 AM 66.2 °F - 57.2 °F 73% 30.21 in - Variable 1.2 mph - N/A   Clear
3:20 AM 66.2 °F - 57.2 °F 73% 30.21 in - ENE 2.3 mph - N/A   Clear
3:50 AM 66.2 °F - 57.2 °F 73% 30.21 in - Variable 1.2 mph - N/A   Clear
4:20 AM 64.4 °F - 57.2 °F 77% 30.21 in - Variable 2.3 mph - N/A   Clear
4:50 AM 66.2 °F - 57.2 °F 73% 30.18 in - Variable 1.2 mph - N/A   Clear
5:20 AM 64.4 °F - 57.2 °F 77% 30.18 in - Variable 1.2 mph - N/A   Clear
5:50 AM 64.4 °F - 57.2 °F 77% 30.21 in - ENE 2.3 mph - N/A   Clear
6:20 AM 62.6 °F - 57.2 °F 82% 30.21 in - ENE 2.3 mph - N/A   Clear
6:50 AM 62.6 °F - 57.2 °F 82% 30.21 in - ENE 2.3 mph - N/A   Clear
7:20 AM 62.6 °F - 59.0 °F 88% 30.21 in - Calm Calm - N/A   Clear
7:50 AM 68.0 °F - 60.8 °F 78% 30.21 in - Calm Calm - N/A   Clear
8:20 AM 71.6 °F - 59.0 °F 64% 30.21 in - Calm Calm - N/A   Clear
8:50 AM 73.4 °F - 59.0 °F 61% 30.21 in - Variable 1.2 mph - N/A   Clear
9:20 AM 73.4 °F - 59.0 °F 61% 30.21 in - Calm Calm - N/A   Clear
9:50 AM 75.2 °F - 60.8 °F 61% 30.21 in - Variable 2.3 mph - N/A   Clear
10:20 AM 78.8 °F - 60.8 °F 54% 30.21 in - Variable 2.3 mph - N/A   Clear
10:50 AM 80.6 °F 81.1 °F 59.0 °F 48% 30.21 in - Variable 2.3 mph - N/A   Clear
11:20 AM 84.2 °F 83.8 °F 59.0 °F 42% 30.18 in - Variable 2.3 mph - N/A   Clear
11:50 AM 87.8 °F 86.5 °F 57.2 °F 35% 30.18 in - South 1.2 mph - N/A   Clear
12:20 PM 89.6 °F 87.3 °F 53.6 °F 29% 30.18 in - Variable 2.3 mph - N/A   Clear
12:50 PM 91.4 °F - 50.0 °F 24% 30.18 in - SE 4.6 mph - N/A   Clear
1:20 PM 93.2 °F - 46.4 °F 20% 30.15 in - SW 4.6 mph - N/A   Clear
1:50 PM 93.2 °F - 46.4 °F 20% 30.15 in - Variable 3.5 mph - N/A   Clear
2:20 PM 95.0 °F - 46.4 °F 19% 30.12 in - Variable 4.6 mph - N/A   Clear
2:50 PM 93.2 °F - 46.4 °F 20% 30.12 in - Variable 4.6 mph - N/A   Clear
3:20 PM 95.0 °F - 48.2 °F 20% 30.09 in - North 4.6 mph - N/A   Clear
3:50 PM 95.0 °F - 48.2 °F 20% 30.09 in - SSW 5.8 mph - N/A   Clear
4:20 PM 95.0 °F - 46.4 °F 19% 30.09 in - Variable 4.6 mph - N/A   Clear
4:50 PM 95.0 °F - 46.4 °F 19% 30.06 in - SSW 5.8 mph - N/A   Clear
5:20 PM 95.0 °F - 48.2 °F 20% 30.06 in - Variable 2.3 mph - N/A   Clear
5:50 PM 95.0 °F - 46.4 °F 19% 30.06 in - SW 4.6 mph - N/A   Clear
6:20 PM 95.0 °F - 46.4 °F 19% 30.06 in - West 3.5 mph - N/A   Clear
6:50 PM 93.2 °F - 50.0 °F 23% 30.06 in - WNW 3.5 mph - N/A   Clear
7:20 PM 89.6 °F 88.1 °F 57.2 °F 33% 30.06 in - WNW 9.2 mph - N/A   Clear
7:50 PM 87.8 °F 86.5 °F 57.2 °F 35% 30.06 in - West 6.9 mph - N/A   Clear
8:20 PM 86.0 °F 84.9 °F 57.2 °F 37% 30.06 in - WSW 8.1 mph - N/A   Clear
8:50 PM 82.4 °F 82.0 °F 57.2 °F 42% 30.09 in - SW 10.4 mph - N/A   Clear
9:20 PM 80.6 °F 80.5 °F 55.4 °F 42% 30.09 in - Variable 3.5 mph - N/A   Clear
9:50 PM 78.8 °F - 53.6 °F 42% 30.12 in - Variable 2.3 mph - N/A   Clear
10:50 PM 78.8 °F - 55.4 °F 44% 30.12 in - South 3.5 mph - N/A   Clear
11:20 PM 73.4 °F - 59.0 °F 61% 30.12 in - Variable 2.3 mph - N/A   Clear
11:50 PM 73.4 °F - 57.2 °F 57% 30.12 in - East 3.5 mph - N/A   Clear